Location: The Saddle
(36.8333°N, 80.3417°W)
Time: 07:06:04
(UTC-05:00)

Vanguard 2 Rocket - Pass Details

Date: 11 December 2023
Orbit: 555 x 3309 km, 32.9° (Epoch: 02 March)

Event Time Altitude Azimuth Distance (km) Brightness Sun altitude
Rises 17:14:41 0° 278° (W) 6,597 12.3 -2.5°
Reaches altitude 10° 17:18:42 10° 276° (W) 5,820 12.0 -3.2°
Maximum altitude 17:37:50 67° 200° (SSW) 3,486 10.0 -6.7°
Drops below altitude 10° 17:55:57 10° 123° (ESE) 5,547 10.5 -10.0°
Sets 17:59:41 0° 120° (ESE) 6,287 10.8 -10.7°
